This demonstration page uses our WeatherBlox Daily Observations layout. Learn more.

Left ArrowRight Arrow

44.8408, -93.29828

Hourly Observations for February 17, 2019

Temp ( °F °C ) Dew Point ( °F °C ) Humidity (%) Winds ( mph kmh ) Pressure ( in mb ) Visibility ( mi km ) Precip ( " mm )
12:53 am 00:53 Cloudy 19 -7.2 10 -12.2 68 68 ENE 7 11 30.07 1018 10 16 0.00 0.00
1:53 am 01:53 Cloudy 19 -7.2 10 -12.2 68 68 E 8 13 30.06 1018 10 16 0.00 0.00
2:53 am 02:53 Clear 18 -7.8 10 -12.2 71 71 E 10 17 30.05 1018 10 16 0.00 0.00
3:12 am 03:12 Cloudy 18 -7.8 10 -12.2 71 71 ENE 9 15 30.06 1018 10 16 0.00 0.00
3:19 am 03:19 Cloudy 18 -7.8 10 -12.2 71 71 ENE 8 13 30.06 1018 10 16 0.00 0.00
3:53 am 03:53 Cloudy 18 -7.8 11 -11.7 74 74 E 10 17 30.03 1017 10 16 0.00 0.00
4:10 am 04:10 Cloudy 18 -7.8 11 -11.7 74 74 E 10 17 30.06 1018 10 16 0.00 0.00
4:53 am 04:53 Cloudy 18 -7.8 11 -11.7 74 74 ENE 9 15 30.03 1017 10 16 0.00 0.00
5:24 am 05:24 Cloudy 18 -7.8 12 -11.1 77 77 ENE 9 15 30.06 1018 10 16 0.00 0.00
5:53 am 05:53 Cloudy 18 -7.8 12 -11.1 77 77 ENE 10 17 30.04 1017 10 16 0.00 0.00
6:53 am 06:53 Cloudy with Light Snow 18 -7.8 12 -11.1 77 77 ENE 10 17 30.04 1017 5 8 0.00 0.03
7:53 am 07:53 Cloudy with Light Snow 18 -7.8 12 -11.1 77 77 NE 13 20 30.04 1017 9 14 0.00 0.03
8:12 am 08:12 Cloudy with Light Snow 18 -7.8 13 -10.6 81 81 ENE 13 20 30.07 1018 2 3 0.00 0.03
8:24 am 08:24 Cloudy with Light Snow 18 -7.8 14 -10 84 84 ENE 12 19 30.08 1019 2 3 0.00 0.03
8:53 am 08:53 Cloudy with Light Snow 19 -7.2 15 -9.4 84 84 ENE 10 17 30.06 1018 2 3 0.01 0.25
9:10 am 09:10 Cloudy with Light Snow 20 -6.7 15 -9.4 81 81 NE 13 20 30.08 1019 6 10 0.00 0.03
9:29 am 09:29 Cloudy with Light Snow 20 -6.7 15 -9.4 81 81 ENE 10 17 30.09 1019 2 3 0.00 0.03
9:53 am 09:53 Cloudy with Light Snow 20 -6.7 16 -8.9 85 85 ENE 13 20 30.06 1018 2 3 0.01 0.25
9:57 am 09:57 Cloudy with Light Snow 20 -6.7 16 -8.9 85 85 ENE 14 22 30.09 1019 2 3 0.00 0.03
10:26 am 10:26 Cloudy with Light Snow 21 -6.1 17 -8.3 85 85 ENE 14 22 30.09 1019 3 4 0.00 0.03
10:53 am 10:53 Cloudy with Light Snow 22 -5.6 17 -8.3 82 82 E 14 22 30.06 1018 3 4 0.00 0.03
11:28 am 11:28 Cloudy with Light Snow 22 -5.6 17 -8.3 82 82 ENE 10 17 30.09 1019 4 6 0.01 0.25
11:53 am 11:53 Cloudy with Light Snow 22 -5.6 17 -8.3 82 82 NE 14 22 30.06 1018 5 8 0.01 0.25
12:53 pm 12:53 Cloudy with Light Snow 24 -4.4 17 -8.3 75 75 ENE 14 22 30.05 1018 8 13 0.00 0.03
1:22 pm 13:22 Cloudy with Light Snow 24 -4.4 17 -8.3 75 75 NE 13 20 30.07 1018 6 10 0.00 0.03
1:53 pm 13:53 Mostly Cloudy 24 -4.4 17 -8.3 75 75 NE 13 20 30.04 1017 9 14 0.00 0.03
2:11 pm 14:11 Mostly Cloudy 25 -3.9 17 -8.3 72 72 NE 12 19 30.06 1018 10 16 0.00 0.00
2:53 pm 14:53 Mostly Cloudy 25 -3.9 15 -9.4 66 66 ENE 13 20 30.05 1018 10 16 0.00 0.03
3:53 pm 15:53 Cloudy 25 -3.9 13 -10.6 60 60 NE 15 24 30.06 1018 10 16 0.00 0.00
4:53 pm 16:53 Cloudy 24 -4.4 10 -12.2 55 55 NNE 16 26 30.08 1019 10 16 0.00 0.00
5:53 pm 17:53 Cloudy 22 -5.6 8 -13.3 55 55 NNE 14 22 30.11 1020 10 16 0.00 0.00
6:53 pm 18:53 Cloudy 22 -5.6 9 -12.8 57 57 NNE 13 20 30.14 1021 10 16 0.00 0.00
7:53 pm 19:53 Cloudy 20 -6.7 9 -12.8 62 62 NNE 14 22 30.17 1022 10 16 0.00 0.00
8:53 pm 20:53 Cloudy 19 -7.2 8 -13.3 62 62 NNE 15 24 30.19 1022 10 16 0.00 0.00
9:53 pm 21:53 Cloudy 18 -7.8 10 -12.2 71 71 NNE 12 19 30.22 1023 10 16 0.00 0.00
10:53 pm 22:53 Cloudy 17 -8.3 8 -13.3 68 68 NNE 13 20 30.23 1024 10 16 0.00 0.00
11:53 pm 23:53 Cloudy 15 -9.4 7 -13.9 70 70 N 10 17 30.25 1024 10 16 0.00 0.00

Powered by AerisWeather